Weather History for Fort Worth, TX

Change the Weather History Date:

Friday, May 17, 2013

  Actual Average Record
Temperature  
Mean Temperature 80 °F -  
Max Temperature 89 °F 82 °F 91 °F (2001)
Min Temperature 73 °F 61 °F 55 °F (2006)
Cooling Degree Days 16    
Growing Degree Days 30 (Base 50)    
Moisture  
Dew Point 72 °F    
Average Humidity 83    
Maximum Humidity 100    
Minimum Humidity 61    
Precipitation  
Precipitation 0.00 in - - ()
Sea Level Pressure  
Sea Level Pressure 29.78 in    
Wind  
Wind Speed 11 mph (SSE)    
Max Wind Speed 18 mph    
Max Gust Speed 24 mph    
Visibility 7 miles    
Events      
Averages and records for this station are not official NWS values.
T = Trace of Precipitation, MM = Missing Value Source: NWS Daily Summary

Daily Weather History Graph

Daily Weather History Graph

Search for Another Location

Airport:

Trip Planner

Search our weather history database for the weather conditions in past years. The results will help you decide how hot, cold, wet, or windy it might be!

Date:

Astronomy

May. 17, 2013 Rise Set
Actual Time 6:28 AM CDT 8:23 PM CDT
Civil Twilight 6:01 AM CDT 8:50 PM CDT
Nautical Twilight 5:28 AM CDT 9:23 PM CDT
Astronomical Twilight 4:53 AM CDT 9:58 PM CDT
Moon 12:53 PM CDT (5/17) 1:24 AM CDT (5/17)
Length of Visible Light 14h 48m
Length of Day
13h 54m
Waxing Crescent, 45% of the Moon is Illuminated
May 17
Waxing Crescent
May 17
First Quarter
May 24
Full
May 31
Last Quarter
Jun 8
New

Hourly Weather History & Observations

Time (CDT) Temp. Heat Index Dew Point Humidity Pressure Visibility Wind Dir Wind Speed Gust Speed Precip Events Conditions
12:53 AM 73.0 °F - 72.0 °F 96% 29.76 in 8.0 mi SE 10.4 mph - N/A   Clear
1:40 AM 73.4 °F - 71.6 °F 94% 29.78 in 7.0 mi SE 9.2 mph - N/A   Mostly Cloudy
1:53 AM 73.0 °F - 72.0 °F 96% 29.76 in 7.0 mi SE 10.4 mph - N/A   Overcast
2:24 AM 73.4 °F - 71.6 °F 94% 29.78 in 6.0 mi SSE 9.2 mph - N/A   Overcast
2:53 AM 73.0 °F - 72.0 °F 96% 29.76 in 5.0 mi SSE 9.2 mph - N/A   Overcast
3:53 AM 73.0 °F - 72.0 °F 96% 29.76 in 5.0 mi South 8.1 mph - N/A   Overcast
4:53 AM 73.0 °F - 72.0 °F 96% 29.77 in 5.0 mi SSE 9.2 mph - N/A   Overcast
5:11 AM 73.4 °F - 73.4 °F 100% 29.79 in 6.0 mi SSE 6.9 mph - N/A   Overcast
5:53 AM 73.0 °F - 73.0 °F 100% 29.77 in 5.0 mi SE 6.9 mph - N/A   Overcast
6:45 AM 73.4 °F - 73.4 °F 100% 29.81 in 4.0 mi SE 6.9 mph - N/A   Overcast
6:53 AM 73.0 °F - 73.0 °F 100% 29.78 in 3.0 mi SSE 9.2 mph - N/A   Overcast
7:53 AM 73.9 °F - 73.0 °F 97% 29.81 in 4.0 mi ESE 6.9 mph - N/A   Overcast
8:53 AM 75.0 °F - 72.0 °F 90% 29.81 in 5.0 mi SSE 11.5 mph - N/A   Overcast
9:53 AM 75.0 °F - 72.0 °F 90% 29.82 in 5.0 mi South 15.0 mph - N/A   Overcast
10:53 AM 78.1 °F - 72.0 °F 81% 29.81 in 6.0 mi SSE 18.4 mph 24.2 mph N/A   Haze
11:53 AM 81.0 °F 85.8 °F 73.0 °F 77% 29.80 in 7.0 mi SSE 17.3 mph 21.9 mph N/A   Overcast
12:53 PM 82.9 °F 88.0 °F 72.0 °F 69% 29.80 in 8.0 mi SSE 16.1 mph 20.7 mph N/A   Mostly Cloudy
1:05 PM 84.2 °F 89.6 °F 71.6 °F 66% 29.82 in 9.0 mi South 17.3 mph 24.2 mph N/A   Scattered Clouds
1:53 PM 86.0 °F 93.4 °F 73.4 °F 66% 29.82 in 9.0 mi South 11.5 mph 19.6 mph N/A   Partly Cloudy
2:53 PM 87.1 °F 94.5 °F 73.0 °F 63% 29.78 in 8.0 mi SSE 9.2 mph - N/A   Partly Cloudy
3:53 PM 88.0 °F 95.6 °F 73.0 °F 61% 29.76 in 9.0 mi SSE 13.8 mph 19.6 mph N/A   Partly Cloudy
4:53 PM 88.0 °F 95.6 °F 73.0 °F 61% 29.75 in 9.0 mi SE 13.8 mph 18.4 mph N/A   Clear
5:53 PM 84.0 °F 89.6 °F 72.0 °F 67% 29.74 in 9.0 mi SE 12.7 mph - N/A   Clear
6:53 PM 84.0 °F 89.6 °F 72.0 °F 67% 29.75 in 10.0 mi SSE 11.5 mph - N/A   Clear
7:53 PM 82.9 °F 88.0 °F 72.0 °F 69% 29.79 in 10.0 mi SE 9.2 mph - N/A   Clear
8:53 PM 82.0 °F 87.4 °F 73.0 °F 74% 29.79 in 10.0 mi SE 8.1 mph - N/A   Clear
9:53 PM 81.0 °F 85.2 °F 72.0 °F 74% 29.81 in 10.0 mi SE 9.2 mph - N/A   Clear
10:53 PM 81.0 °F 85.8 °F 73.0 °F 77% 29.78 in 10.0 mi South 18.4 mph - N/A   Clear
11:53 PM 80.1 °F 84.5 °F 73.9 °F 81% 29.79 in 8.0 mi South 11.5 mph - N/A   Clear